www.pogodaiklimat.ru
ПОГОДА в Сомервилле
Время
и дата
11:53 07.02
12:53 07.02
13:53 07.02
14:53 07.02
15:53 07.02
16:53 07.02
17:53 07.02
18:53 07.02
19:53 07.02
20:53 07.02
21:53 07.02
22:53 07.02
23:53 07.02
00:53 08.02
01:53 08.02
02:53 08.02
03:35 08.02
03:53 08.02
04:06 08.02
04:33 08.02
04:44 08.02
04:53 08.02
05:53 08.02
06:53 08.02
07:53 08.02
08:53 08.02
09:53 08.02
10:53 08.02
11:53 08.02
12:53 08.02
13:53 08.02
14:53 08.02
15:53 08.02
16:53 08.02
17:53 08.02
18:53 08.02
19:53 08.02
20:53 08.02
21:53 08.02
22:53 08.02
23:53 08.02
00:53 09.02
01:53 09.02
02:53 09.02
03:53 09.02
04:53 09.02
05:53 09.02
06:53 09.02
Ветер
(напр.,м/с)
Видим. Явления Облачность Т
(С)
Тd
(С)
f
(%)
Тe
(С)
Тes
(С)
Комфортность P
(гПа)
Po
(гПа)
Тmin
(С)
Tmax
(С)
R
(мм)
R24
(мм)
S
(см)
нст 3 16 км ясно +3.3 -6.1 50 0 +5 1027.7 1023.4
Ю 3 16 км ясно +3.9 -6.1 48 +1 +7 1025.9 1021.7 -7.2 +4.4
нст 2 16 км ясно +6.1 -5.0 45 +4 +11 1024.6 1020.4
Ю 4 16 км ясно +6.1 -4.4 47 +3 +6 1023.2 1019.0
нст 3 16 км ясно +7.2 -3.9 45 +5 +7 1022.8 1018.7
16 км ясно +6.1 -3.9 49 +6 +7 1022.6 1018.4
штиль 0 16 км ясно +3.9 -3.9 57 +3 +3 1021.8 1017.7
штиль 0 16 км ясно +5.0 -2.8 57 +5 +5 1021.7 1017.3 +1.7 +7.2
штиль 0 16 км ясно +4.4 -2.2 62 +4 +4 1021.8 1017.7
штиль 0 16 км 10/0 2850 m
[Ac]
+3.9 -2.2 64 +3 +3 1021.9 1017.7
штиль 0 16 км 10/2 1650 m
[Ac]
+2.2 0.0 85 +1 +1 1021.0 1016.7
штиль 0 16 км 10/10 1650 м +2.2 +0.6 89 +1 +1 1020.3 1016.3
штиль 0 13 км 8/0 2400 m
[Ac]
+2.8 +1.1 89 +2 +2 1020.0 1016.0
штиль 0 13 км 2/2 1800 м +1.7 +0.6 92 +1 +1 1018.8 1014.6 +1.7 +5.0
штиль 0 11 км ясно +1.1 +0.6 96 0 0 1018.7 1014.6
штиль 0 10 км дымка ясно 0.0 -0.6 96 -1 -1 1018.6 1014.6
штиль 0 3 км дымка ясно -1.1 -1.7 96 -2 -2 1014.6
штиль 0 3 км дымка ясно -1.7 -2.2 96 -3 -3 1018.8 1014.6
штиль 0 5 км дымка ясно -1.1 -2.2 92 -2 -2 1014.6
штиль 0 3 км дымка ясно -2.2 -2.8 96 -4 -4 1015.0
штиль 0 5 км дымка ясно -1.7 -2.8 92 -3 -3 1015.0
штиль 0 8 км дымка ясно -2.2 -2.8 96 -4 -4 1019.1 1015.0
штиль 0 11 км 8/8 1650 м -2.2 -3.3 92 -3 -3 1019.8 1015.7
штиль 0 11 км ясно -2.8 -3.9 92 -4 -4 1020.1 1016.0 -2.8 +1.7
штиль 0 8 км дымка ясно -1.7 -2.2 96 -3 -3 1021.2 1017.0
штиль 0 11 км 8/8 1260 м +3.3 +0.6 82 +2 +3 1022.2 1018.0
СЗ 6
{10}
16 км 8/8 1230 м +8.3 +0.6 58 +5 +5 1022.9 1018.7
СЗ 5
{9}
16 км ясно +9.4 -1.7 46 +7 +9 1023.4 1019.4
СЗ 4 16 км ясно +10.6 -2.2 41 +9 +13 1023.2 1019.0
нст 2 16 км ясно +11.1 -2.2 39 +10 +17 1022.4 1018.4 -2.8 +11.7
З 4 16 км ясно +12.2 -2.8 35 +11 +15 1022.1 1018.0
З 4 16 км ясно +12.2 -3.3 34 +11 +14 1022.7 1018.7
нст 2 16 км ясно +12.2 -2.8 35 +12 +14 1023.4 1019.4
З 2 16 км ясно +10.6 -2.8 39 +10 +11 1023.8 1019.7
штиль 0 16 км ясно +6.7 -2.8 51 +6 +6 1024.0 1019.7
штиль 0 16 км ясно +1.7 -3.3 69 +1 +1 1024.8 1020.7 +1.7 +12.2
штиль 0 16 км ясно +0.6 -3.3 75 0 0 1025.1 1020.7
штиль 0 16 км ясно -0.6 -3.3 82 -2 -2 1025.8 1021.4
СЗ 2 16 км ясно -1.7 -4.4 82 -6 -6 1026.3 1022.1
штиль 0 16 км ясно -1.7 -4.4 82 -3 -3 1026.4 1022.4
СЗ 2 16 км ясно -2.2 -4.4 85 -6 -6 1026.3 1022.1
СЗ 2 16 км ясно -3.3 -5.0 88 -7 -7 1025.6 1021.4 -3.9 +3.3
штиль 0 16 км ясно -3.9 -5.6 88 -5 -5 1025.8 1021.7
СЗ 2 16 км ясно -4.4 -5.6 91 -9 -9 1025.2 1021.1
штиль 0 16 км ясно -4.4 -6.1 88 -5 -5 1024.8 1020.7
штиль 0 16 км ясно -5.0 -6.1 92 -6 -6 1025.1 1021.1
СВ 2 16 км 5/0 3300 m
[Ac]
-2.8 -4.4 89 -7 -7 1025.8 1021.7
штиль 0 16 км 10/0 3000 m
[Ac]
-1.7 -3.3 89 -3 -3 1025.9 1021.7 -5.6 -1.7
Местоположение метеостанции Somerset Airport: широта 40.6241 долгота -74.6690 высота над уровнем моря 32 м.
В архиве по умолчанию представлена погода в Сомервилле за последние 1-2 суток. Обновление информации о фактической погоде в базе происходит ежечасно! Архивные данные за месяц целиком и за предыдущие месяцы Вы можете получить, выбрав интересующий диапазон дат из раскрывающегося списка и нажав кнопку "Ввод!".
Внимание! Архив погоды МЕТАР в базе сайта по станциям, не включенным в климатический монитор, хранится не более 60 дней. Нет смысла пытаться выбрать более раннюю дату.
*Определитесь, кто Вы:
Внимание! Время в таблицах - местное (без учета летнего времени). Для получения всемирного времени необходимо вычесть поправку, которая равна -5 ч.
Смотрите также архив погоды в соседних городах и на ближайших метеорологических станциях:
Партнеры нашего сайта:      
Пояснения к столбцам:
  • Ветер - указаны скорость ветра в м/с - средняя за 10 мин, порывы в срок и между сроками (в фигурных скобках) и направление, откуда дует ветер: С - северный,
  • СВ - северо-восточный, В - восточный, ЮВ - юго-восточный, Ю - южный, ЮЗ - юго-западный, З - западный, СЗ - северо-западный.
  • Видимость - горизонтальная дальность видимости в метрах или километрах. При видимости от 1 до 10 км при отсутствии осадков обычно наблюдается дымка, при ухудшении видимости до 1 км и менее - туман. В сухую погоду видимость может ухудшаться дымом, пылью или мглою.
  • Явления - указаны атмосферные явления, наблюдавшиеся в срок или в последний час перед сроком; фигурными скобками обозначены явления, наблюдавшиеся между сроками (за 1-3 часа до срока); квадратными скобками обозначены град или гололедные отложения с указанием их диаметра в мм.
  • Облачность - указаны через наклонную черту общая и нижняя облачность в баллах и высота нижней границы облаков в метрах; квадратными скобками обозначены формы облаков: Ci - перистые, Cs - перисто-слоистые, Cc - перисто-кучевые, Ac - высококучевые, As - высокослоистые, Sc - слоисто-кучевые, Ns - слоисто-дождевые, Cu - кучевые, Cb - кучево-дождевые. Подробнее классификацию облаков см. в Атласе облаков (PDF).
  • T - Температура воздуха - температура, измеренная на высоте 2 м над землей.
  • Td - Температура точки росы - температура, при понижении до которой содержащийся в воздухе водяной пар достигнет насыщения.
  • f - Относительная влажность воздуха - влажноcть воздуха, измеренная на высоте 2 м над землей.
  • Te - Эффективная температура - температура, которую ощущает одетый по сезону человек в тени. Характеристика душности погоды. При расчете учитывается влияние влажности воздуха и скорости ветра на теплоощущения человека.
  • Tes - Эффективная температура на солнце - температура, которую ощущает человек, с поправкой на солнечный нагрев. Характеристика знойности погоды. Зависит от высоты солнца над горизонтом, облачности и скорости ветра. Ночью, в пасмурную погоду, а также при ветре 12 м/с и более поправка равна нулю.
  • P - Атмосферное давление - приведенное к уровню моря атмосферное давление.
  • Po - Атмосферное давление - измеренное на уровне метеостанции атмосферное давление.
  • Tmin - Минимальная температура - минимум температуры воздуха на высоте 2 м над землей.
  • Tmax - Максимальная температура - максимум температуры воздуха на высоте 2 м над землей.
  • R - Количество осадков - Количество выпавших осадков за период времени, мм. При наведении курсора мыши на число - период времени, за который выпало указанное количество осадков.
  • R24 - Количество осадков - Количество выпавших осадков за 24 часа, мм.
  • S - Снежный покров - Высота снежного покрова, см. При наведении курсора мыши на число - состояние снежного покрова и степень покрытия местности в баллах.